Weather Roundup
Issued by NWS

Home | Current Version | Previous Version | Graphics & Text | Print | Product List | Glossary Off
Versions: 1 2 3 4 5 6 7 8 9 10 11 12 13 14 15 16 17 18 19 20 21 22 23 24 25 26 27 28 29 30 31 32 33 34 35 36 37 38 39 40 41 42 43 44 45 46 47 48 49 50

167
NZUS93 KARX 292159
HRRWXR

CURRENT HOURLY OBSERVATIONS ACROSS
MUCH OF THE UPPER MISSISSIPPI VALLEY
NATIONAL WEATHER SERVICE LA CROSSE WI
500 PM CDT SUN MAY 29 2016


...SOUTHEAST MINNESOTA...


CITY           SKY/WX    TMP DP  RH WIND       PRES   REMARKS
ROCHESTER      PTSUNNY   72  60  66 NW20      29.98S
ROCHESTER/MAYO CLOUDY    68  57  68 NW10G18   29.98R
WINONA         PTSUNNY   73  57  56 NW9       29.95S
AUSTIN         CLOUDY    77  55  47 NW13G18   29.98S
ALBERT LEA     MOSUNNY   79  57  47 W7        29.98F
DODGE CENTER   MOSUNNY   73  57  56 NW8       29.99S
PRESTON        CLOUDY    76  56  49 W16G23    29.98F
OWATONNA       MOSUNNY   73  57  56 NW10      29.98S
FARIBAULT      CLOUDY    72  59  64 W5        29.98F
$$

...ELSEWHERE IN MINNESOTA...


CITY           SKY/WX    TMP DP  RH WIND       PRES   REMARKS
MINNEAPOLIS    MOSUNNY   78  54  43 W16G24    29.93F
INTNL FALLS    PTSUNNY   64  55  72 W10       29.88S
DULUTH         MOSUNNY   69  53  56 NW17G26   29.89S
RED WING       CLOUDY    79  55  44 W10       29.93F
REDWOOD FALLS  MOSUNNY   79  48  33 W16G23    29.96F
MANKATO        MOSUNNY   79  54  41 W14       29.96F
WORTHINGTON    SUNNY     76  48  37 NW15      30.03
FAIRMONT       MOSUNNY   79  52  38 W16G25    29.98F
$$

...SOUTHWEST WISCONSIN...


CITY           SKY/WX    TMP DP  RH WIND       PRES   REMARKS
LA CROSSE      PTSUNNY   76  59  55 NW13      29.93F
PRAIRIE DU CHI CLOUDY    77  56  48 SW10      29.97F
BOSCOBEL       MOSUNNY   79  58  48 W9G25     29.96F
LONE ROCK      NOT AVBL
PLATTEVILLE    MOSUNNY   78  59  51 W17G26    29.99F
FORT MC COY    PTSUNNY   76  56  48 NW15G23   29.95S
MAUSTON-NEW LI PTCLDY    76  56  49 W12G17    29.93S
VIROQUA        FAIR      76  60  58 W16G22    29.98S
WIS DELLS      CLOUDY    75  54  47 W13G20    29.95S
$$

...ELSEWHERE IN WISCONSIN...


CITY           SKY/WX    TMP DP  RH WIND       PRES   REMARKS
MILWAUKEE      MOSUNNY   79  56  45 W14G23    29.94F
MADISON        PTSUNNY   77  55  46 W10G18    29.95S
GREEN BAY      PTSUNNY   74  61  63 W15G26    29.89S
EAU CLAIRE     NOT AVBL
BLACK RVR FLS  FAIR      79  52  38 W13G22    29.93F
MEDFORD        PTSUNNY   70  59  66 W10G22    29.91S
WAUSAU         PTSUNNY   75  58  55 W20G31    29.89S
WIS RAPIDS     MOSUNNY   76  55  48 NW14G21   29.93S
MARSHFIELD     MOSUNNY   75  57  53 W16G26    29.91F
RICE LAKE      PTSUNNY   73  55  52 W15       29.95R
$$

...NORTHEAST IOWA...


CITY           SKY/WX    TMP DP  RH WIND       PRES   REMARKS
WATERLOO       PTSUNNY   78  56  46 W12       29.99F
DUBUQUE        MOSUNNY   77  58  51 W10       30.00F
DECORAH        MOSUNNY   77  57  50 VRB6G18   29.97F
MASON CITY     PTSUNNY   75  61  61 W9        30.02F
CHARLES CITY   CLOUDY    73  59  60 NW14      30.01S
OELWEIN        PTSUNNY   73  57  56 NW17G28   30.01S
$$

...ELSEWHERE IN IOWA...


CITY           SKY/WX    TMP DP  RH WIND       PRES   REMARKS
DES MOINES     MOSUNNY   83  52  34 W7        30.02F
IOWA CITY      MOSUNNY   81  58  45 W14G24    30.02F
FORT DODGE     MOSUNNY   81  55  41 W10       30.01F
MARSHALLTOWN   MOSUNNY   79  58  48 W13       30.00F
CEDAR RAPIDS   MOSUNNY   81  61  50 W12       30.01F
$$

...NORTHERN ILLINOIS...


CITY           SKY/WX    TMP DP  RH WIND       PRES   REMARKS
CHICAGO-OHARE  MOSUNNY   77  58  51 W16G22    29.98F
CHICAGO-MIDWAY MOSUNNY   81  58  45 W13G21    29.99F
MOLINE         SUNNY     82  56  40 W10       30.01F
ROCKFORD       MOSUNNY   80  58  46 W10       30.01F
PEORIA         MOSUNNY   83  55  38 W7        30.03F
$$

NOTE: "FAIR" INDICATES FEW OR NO CLOUDS BELOW 12,000 FEET WITH NO
SIGNIFICANT WEATHER AND/OR OBSTRUCTIONS TO VISIBILITY. WIND
SPEEDS ARE IN MILES-PER-HOUR.




USA.gov is the U.S. government's official web portal to all federal, state and local government web resources and services.